Regional Weather Roundup
Issued by NWS

Home | Current Version | Previous Version | Text Only | Print | Product List | Glossary On
Versions: 1 2 3 4 5 6 7 8 9 10 11 12 13 14 15 16 17 18 19 20 21 22 23 24 25 26 27 28 29 30 31 32 33 34 35 36 37 38 39 40 41 42 43 44 45 46 47 48 49 50
000
ASUS44 KOUN 221500
RWROK

WEATHER ROUNDUP FOR OKLAHOMA
NATIONAL WEATHER SERVICE NORMAN OK
1000 AM CDT FRI AUG 22 2014

NOTE: "FAIR" INDICATES FEW OR NO CLOUDS BELOW 12,000 FEET WITH NO
      SIGNIFICANT WEATHER AND/OR OBSTRUCTIONS TO VISIBILITY.

OKZ001>007-009>012-014-015-017-221600-
NORTHWEST OKLAHOMA AND THE PANHANDLE

CITY           SKY/WX    TMP DP  RH WIND       PRES   REMARKS
GAGE           SUNNY     89  65  44 SW23      29.98R HX  91
$$

OKZ016-021>023-033>039-044-045-221600-
SOUTHWEST OKLAHOMA

CITY           SKY/WX    TMP DP  RH WIND       PRES   REMARKS
LAWTON/REGL    SUNNY     88  69  53 SW16G23   30.01F HX  92
LAWTON/FT SILL SUNNY     88  70  54 S18       30.00F HX  93
FREDERICK      SUNNY     89  69  51 SW23G29   29.97F HX  93
CLINTON        SUNNY     87  62  43 S20       30.01F
HOBART         SUNNY     88  65  46 SW22G31   30.00F HX  90
$$

OKZ018>020-024>031-221600-
CENTRAL OKLAHOMA

CITY           SKY/WX    TMP DP  RH WIND       PRES   REMARKS
OKLAHOMA CITY  SUNNY     87  69  54 SW20G26   30.00S HX  91
OKC/WILEY POST SUNNY     87  69  54 SW21G30   29.99S HX  91
STILLWATER     SUNNY     89  69  51 S17       29.97R HX  93
GUTHRIE        SUNNY     87  69  54 SW16G26   29.97S HX  91
$$

OKZ008-013-054>072-221600-
NORTHEAST OKLAHOMA

CITY           SKY/WX    TMP DP  RH WIND       PRES   REMARKS
TULSA          MOSUNNY   87  70  56 SW13G20   29.97S HX  92
TULSA/JONES    SUNNY     87  71  58 SW12      29.99R HX  93
PONCA CITY     SUNNY     87  67  51 S10G18    29.95S HX  90
BARTLESVILLE   SUNNY     89  71  55 S7        29.97S HX  95
MUSKOGEE       SUNNY     85  73  67 SW12      30.03R HX  91
$$

OKZ032-040>043-046>053-073>077-221600-
SOUTH CENTRAL/SOUTHEAST OKLAHOMA

CITY           SKY/WX    TMP DP  RH WIND       PRES   REMARKS
MCALESTER      SUNNY     85  73  67 S15G23    30.03F HX  91
$$



USA.gov is the U.S. government's official web portal to all federal, state and local government web resources and services.